Regional Weather Roundup
Issued by NWS

Home | Current Version | Previous Version | Text Only | Print | Product List | Glossary Off
Versions: 1 2 3 4 5 6 7 8 9 10 11 12 13 14 15 16 17 18 19 20 21 22 23 24 25 26 27 28 29 30 31 32 33 34 35 36 37 38 39 40 41 42 43 44 45 46 47 48 49 50

000
ASUS43 KOAX 190410
RWRNE

WEATHER ROUNDUP FOR NEBRASKA
NATIONAL WEATHER SERVICE OMAHA NE
1100 PM CDT FRI AUG 18 2017

NOTES: SATELLITE DATA IS BEING USED TO AUGMENT CLOUD COVER ABOVE
       12000 FEET.
       "FAIR" INDICATES FEW OR NO CLOUDS BELOW 12,000 FEET WITH NO
       SIGNIFICANT WEATHER AND/OR OBSTRUCTIONS TO VISIBILITY.


NEZ001>004-019>022-054>056-190500-
NEBRASKA PANHANDLE

CITY           SKY/WX    TMP DP  RH WIND       PRES   REMARKS
SCOTTSBLUFF    FAIR      66  52  60 E8        30.05S
ALLIANCE       FAIR      61  52  72 SE3       30.05R
CHADRON        FAIR      70  49  47 SE14      29.99S
GORDON         FAIR      60  52  74 E6        30.04R
KIMBALL        FAIR      65  50  57 S9        30.13S
SIDNEY         FAIR      65  49  56 S10       30.11R
$$

NEZ057>060-069>072-079>082-190500-
SOUTHWEST NEBRASKA

CITY           SKY/WX    TMP DP  RH WIND       PRES   REMARKS
NORTH PLATTE   FAIR      65  55  70 E8        30.03R
IMPERIAL       FAIR      71  51  49 S10       30.06R
LEXINGTON      FAIR      68  62  79 CALM      30.02S
MCCOOK         FAIR      67  59  75 SW8       30.02S
OGALLALA       FAIR      67  55  63 W5        30.05R
$$

NEZ005>010-023>029-035>040-094-190500-
NORTH CENTRAL NEBRASKA

CITY           SKY/WX    TMP DP  RH WIND       PRES   REMARKS
VALENTINE      FAIR      68  54  60 SE6       30.02R
AINSWORTH      FAIR      63  58  84 E7        30.03S
BROKEN BOW     FAIR      66  60  81 CALM      30.02R
O`NEILL        FAIR      65  62  87 E5        30.02R
ORD            FAIR      64  58  80 CALM      30.00R
THEDFORD       FAIR      64  58  78 CALM      30.05R
$$

NEZ041-046>049-061>064-073>077-083>087-190500-
SOUTH CENTRAL NEBRASKA

CITY           SKY/WX    TMP DP  RH WIND       PRES   REMARKS
GRAND ISLAND   FAIR      68  65  90 NE5       30.00R
AURORA         FAIR      68  65  91 NW6       29.99S
HASTINGS       FAIR      73  63  70 SW3       30.00R
HEBRON         FAIR      69  66  90 CALM      29.97R
HOLDREGE       FAIR      71  57  62 S3        30.01S
KEARNEY        FAIR      70  65  84 SW6       30.00S
YORK           FAIR      68  66  94 CALM      29.99R
$$

NEZ011>018-030>034-042>045-190500-
NORTHEAST NEBRASKA

CITY           SKY/WX    TMP DP  RH WIND       PRES   REMARKS
NORFOLK        FAIR      68  60  75 N6        29.99R
ALBION         FAIR      69  62  79 N8        30.00R
BLAIR          FAIR      72  67  85 NW5       29.95R
COLUMBUS       FAIR      66  63  90 NW3       29.98R
FREMONT        FAIR      69  67  92 W3        29.96S
TEKAMAH        FAIR      68  64  87 W6        29.94R
WAYNE          FAIR      65  62  91 NW6       29.98R
$$

NEZ050>053-065>068-078-088>093-190500-
SOUTHEAST NEBRASKA

CITY           SKY/WX    TMP DP  RH WIND       PRES   REMARKS
LINCOLN        FAIR      70  66  87 NE3       29.96R
OMAHA EPPLEY   FAIR      73  67  81 CALM      29.93R
BEATRICE       FAIR      68  64  88 CALM      29.95S
FALLS CITY     FAIR      69  66  90 CALM      29.93R
NEBRASKA CITY  FAIR      71  67  89 W7        29.95R
PLATTSMOUTH    FAIR      73  64  73 W3        29.94R
$$

NEZ044-045-051>053-067-190500-
OMAHA AREA

CITY           SKY/WX    TMP DP  RH WIND       PRES   REMARKS
OMAHA EPPLEY   FAIR      73  67  81 CALM      29.93R
BLAIR          FAIR      72  67  85 NW5       29.95R
FREMONT        FAIR      69  67  92 W3        29.96S
MILLARD        FAIR      73  69  87 CALM      29.94R
OFFUTT AFB     FAIR      68  64  87 CALM      29.93R
PLATTSMOUTH    FAIR      73  64  73 W3        29.94R
WAHOO          FAIR      71  67  86 NW7       29.96R
$$




USA.gov is the U.S. government's official web portal to all federal, state and local government web resources and services.